Weather History for St. Petersburg, FL

Change the Weather History Date:

Friday, February 10, 2012

  Actual Average Record
Temperature  
Mean Temperature 68 °F -  
Max Temperature 75 °F 68 °F 81 °F (1959)
Min Temperature 62 °F 51 °F 36 °F (1971)
Cooling Degree Days 4    
Growing Degree Days 18 (Base 50)    
Moisture  
Dew Point 62 °F    
Average Humidity 86    
Maximum Humidity 97    
Minimum Humidity 73    
Precipitation  
Precipitation 0.21 in - - ()
Sea Level Pressure  
Sea Level Pressure 30.02 in    
Wind  
Wind Speed 8 mph (NNE)    
Max Wind Speed 13 mph    
Max Gust Speed -    
Visibility 9 miles    
Events Rain    
Averages and records for this station are not official NWS values.
T = Trace of Precipitation, MM = Missing Value Source: NWS Daily Summary

Daily Weather History Graph

Daily Weather History Graph

Search for Another Location

Airport:

Trip Planner

Search our weather history database for the weather conditions in past years. The results will help you decide how hot, cold, wet, or windy it might be!

Date:

Astronomy

Feb. 10, 2012 Rise Set
Actual Time 7:12 AM EST 6:17 PM EST
Civil Twilight 6:47 AM EST 6:41 PM EST
Nautical Twilight 6:20 AM EST 7:09 PM EST
Astronomical Twilight 5:52 AM EST 7:37 PM EST
Moon 9:28 PM EST (2/10) 8:42 AM EST (2/10)
Length of Visible Light 11h 54m
Length of Day
11h 05m
Waning Gibbous, 90% of the Moon is Illuminated
Feb 10
Waning Gibbous
Feb 14
Last Quarter
Feb 21
New
Feb 29
First Quarter
Mar 8
Full

Hourly Weather History & Observations

Time (EST) Temp. Dew Point Humidity Pressure Visibility Wind Dir Wind Speed Gust Speed Precip Events Conditions
12:53 AM 64.0 °F 57.9 °F 80% 30.09 in 10.0 mi East 12.7 mph - N/A   Clear
1:53 AM 63.0 °F 57.9 °F 84% 30.08 in 10.0 mi East 11.5 mph - N/A   Clear
2:53 AM 63.0 °F 59.0 °F 87% 30.06 in 10.0 mi ENE 10.4 mph - N/A   Overcast
3:53 AM 63.0 °F 59.0 °F 87% 30.04 in 10.0 mi East 10.4 mph - N/A   Clear
4:53 AM 63.0 °F 59.0 °F 87% 30.04 in 10.0 mi NE 6.9 mph - N/A   Clear
5:53 AM 63.0 °F 60.1 °F 90% 30.05 in 10.0 mi NE 4.6 mph - N/A   Clear
6:53 AM 62.1 °F 59.0 °F 90% 30.06 in 10.0 mi NE 6.9 mph - N/A   Mostly Cloudy
7:53 AM 62.1 °F 59.0 °F 90% 30.08 in 9.0 mi NNE 4.6 mph - N/A   Scattered Clouds
8:53 AM 63.0 °F 60.1 °F 90% 30.08 in 10.0 mi ENE 6.9 mph - N/A   Scattered Clouds
9:01 AM 62.6 °F 60.8 °F 94% 30.09 in 9.0 mi NE 5.8 mph - N/A   Mostly Cloudy
9:12 AM 62.6 °F 60.8 °F 94% 30.08 in 9.0 mi ENE 8.1 mph - N/A   Mostly Cloudy
9:53 AM 64.9 °F 60.1 °F 84% 30.08 in 8.0 mi ENE 5.8 mph - N/A   Clear
10:20 AM 64.4 °F 60.8 °F 88% 30.09 in 7.0 mi East 5.8 mph - N/A   Mostly Cloudy
10:53 AM 66.0 °F 61.0 °F 84% 30.09 in 7.0 mi ENE 4.6 mph - N/A   Overcast
11:04 AM 66.2 °F 60.8 °F 83% 30.09 in 7.0 mi NE 4.6 mph - N/A   Overcast
11:53 AM 71.1 °F 64.0 °F 78% 30.07 in 9.0 mi ENE 3.5 mph - N/A   Mostly Cloudy
12:53 PM 72.0 °F 64.9 °F 78% 30.02 in 10.0 mi ESE 5.8 mph - N/A   Clear
1:53 PM 73.9 °F 66.0 °F 76% 29.98 in 10.0 mi South 6.9 mph - N/A   Partly Cloudy
2:53 PM 75.0 °F 66.0 °F 73% 29.96 in 10.0 mi WSW 9.2 mph - N/A   Partly Cloudy
3:53 PM 72.0 °F 66.0 °F 81% 29.96 in 10.0 mi WNW 9.2 mph - N/A   Partly Cloudy
4:53 PM 71.1 °F 64.9 °F 81% 29.94 in 10.0 mi WNW 9.2 mph - N/A   Clear
5:53 PM 70.0 °F 64.9 °F 84% 29.91 in 10.0 mi North 6.9 mph - N/A   Clear
6:53 PM 69.1 °F 64.0 °F 84% 29.92 in 10.0 mi North 5.8 mph - N/A   Scattered Clouds
7:53 PM 68.0 °F 64.0 °F 87% 29.93 in 10.0 mi North 4.6 mph - 0.00 in Rain Light Rain
8:53 PM 66.9 °F 64.0 °F 90% 29.96 in 10.0 mi NNW 8.1 mph - 0.01 in   Overcast
9:53 PM 64.9 °F 64.0 °F 97% 29.99 in 5.0 mi NW 6.9 mph - 0.07 in Rain Light Rain
10:53 PM 64.0 °F 63.0 °F 96% 29.98 in 4.0 mi North 5.8 mph - 0.10 in Rain Rain
11:53 PM 64.0 °F 63.0 °F 96% 29.98 in 8.0 mi WNW 5.8 mph - 0.03 in Rain Light Rain